User: anonymous   Login
Location: Holmes Observatory
(37.1039°N, 122.0513°W)
Time: 23:47:59
(UTC-07:00)
Language:

Cosmos 921 Rocket - Orbit

View from above orbital plane
View from above orbital plane
View from above satellite
View from above satellite

Ground track
Ground track

The orbit data is extracted from the following two-line orbital elements,

1 10096U 77055B   17147.26659365 +.00000059 +00000-0 +85463-5 0  9997
2 10096 075.8358 036.7744 0043434 259.9985 099.6303 14.88554666159132
Epoch (UTC): 27 May 2017 06:23:53
Eccentricity: 0.0043434
inclination: 75.8358°
perigee height: 572 km
apogee height: 633 km
right ascension of ascending node: 36.7744°
argument of perigee: 259.9985°
revolutions per day: 14.88554666
mean anomaly at epoch: 99.6303°
orbit number at epoch: 15913

The dashed part of the orbit path shows where the satellite is in the earth's shadow,  

DLR